Flag for Guinea Weather past 2 weeks in Nzérékoré, Guinea

Now
81 °F

Partly sunny.


Feels Like: 87 °F
Forecast: 69 / 82 °F
Wind: No wind

Location: Roberts Field

Current Time: Sep 15, 2014 at 10:04:06 AM

Latest Report: Sep 15, 2014 at 9:30 AM


Visibility: N/A

Pressure: 29.98 "Hg

Humidity: 89%

Dew point: 77 °F

Location of NzérékoréLocation

Historic Weather in Nzérékoré — Graph

°F

Nzérékoré temperature yesterday

Maximum temperature yesterday: 82 °F (at 12:30 PM)
Minimum temperature yesterday: 75 °F (at 12:00 AM)
Average temperature yesterday: 79 °F

Past Weeks' High & Low Weather Summary

 TemperatureHumidityPressure
High86 °F (Sep 4, 2:00 PM)94% (Aug 31, 11:30 AM)30.04 "Hg (Aug 31, 11:30 AM)
Low72 °F (Sep 2, 11:00 AM)66% (Sep 8, 2:30 PM)29.83 "Hg (Sep 12, 5:30 PM)
Average78 °F89%29.93 "Hg
* Reported Aug 31 9:00 AM — Sep 15 9:00 AM, Nzérékoré, Weather by CustomWeather, © 2014

Note: Actual official high and low records may vary slightly from our data, if they occured in-between our weather recording intervals... More about our weather records

Advertising

Nzérékoré weather history for previous 24 hours

 ConditionsComfort  
Time TempWeatherWind HumidityBarometerVisibility
9:00 AM
Sep 15
79 °FPartly sunny.No wind89%29.98 "HgN/A
8:30 AM77 °FPartly sunny.3 mph94%29.98 "HgN/A
8:00 AM77 °FPartly sunny.5 mph94%29.98 "HgN/A
7:30 AM75 °FPassing clouds.No wind94%29.95 "Hg4 mi
6:30 AM75 °FPassing clouds.No wind94%29.95 "HgN/A
5:30 AM75 °FPassing clouds.No wind94%29.92 "HgN/A
2:00 AM75 °FPassing clouds.No wind94%29.92 "HgN/A
1:30 AM75 °FPassing clouds.No wind94%29.95 "HgN/A
1:00 AM75 °FRain. Passing clouds.No wind94%29.95 "HgN/A
12:30 AM75 °FLight rain. Passing clouds.No wind94%29.95 "Hg6 mi
12:00 AM75 °FLight rain. Passing clouds.No wind94%29.98 "Hg5 mi
11:30 PM
Sep 14
75 °FLight rain. Passing clouds.No wind94%29.98 "Hg4 mi
11:00 PM75 °FHeavy rain. Mostly cloudy.No wind94%29.98 "Hg2 mi
8:00 PM77 °FPassing clouds.No wind94%29.95 "HgN/A
7:30 PM77 °FScattered clouds.No wind94%29.95 "HgN/A
6:30 PM79 °FPartly sunny.8 mph89%29.92 "HgN/A
6:00 PM81 °FPartly sunny.9 mph84%29.92 "HgN/A
5:30 PM82 °FPartly sunny.10 mph79%29.92 "HgN/A
5:00 PM82 °FPartly sunny.9 mph79%29.92 "HgN/A
4:30 PM82 °FPartly sunny.9 mph79%29.92 "HgN/A
4:00 PM82 °FPartly sunny.12 mph79%29.92 "HgN/A
3:30 PM82 °FPartly sunny.10 mph79%29.92 "HgN/A
3:00 PM82 °FPartly sunny.12 mph79%29.92 "HgN/A
2:30 PM81 °FPartly sunny.12 mph84%29.92 "HgN/A
2:00 PM81 °FPartly sunny.9 mph84%29.92 "HgN/A
1:30 PM82 °FPartly sunny.13 mph79%29.95 "HgN/A
1:00 PM82 °FPartly sunny.12 mph84%29.95 "HgN/A
12:30 PM82 °FPartly sunny.6 mph84%29.95 "HgN/A
12:00 PM81 °FDrizzle. Partly sunny.9 mph84%29.98 "HgN/A
11:30 AM79 °FDrizzle. Partly sunny.10 mph89%29.98 "Hg6 mi
11:00 AM81 °FPartly sunny.14 mph84%29.98 "HgN/A
10:30 AM81 °FPartly sunny.8 mph84%29.98 "HgN/A
10:00 AM79 °FPartly sunny.6 mph89%29.98 "HgN/A
Weather by CustomWeather, © 2014

See weather overviewHow to use our weather pages